TimePDT,TemperatureF,Dew PointF,Humidity,Sea Level PressureIn,VisibilityMPH,Wind Direction,Wind SpeedMPH,Gust SpeedMPH,PrecipitationIn,Events,Conditions,WindDirDegrees,DateUTC
12:53 AM,59.0,55.9,90,30.04,10.0,WSW,10.4,-,N/A,,Overcast,250,2013-07-02 07:53:00
1:53 AM,57.9,55.9,93,30.05,10.0,WSW,9.2,-,N/A,,Overcast,250,2013-07-02 08:53:00
2:53 AM,57.9,55.9,93,30.06,10.0,WSW,8.1,-,N/A,,Overcast,250,2013-07-02 09:53:00
3:38 AM,57.2,55.4,94,30.06,10.0,SW,6.9,-,N/A,,Overcast,230,2013-07-02 10:38:00
3:53 AM,57.0,55.9,96,30.06,10.0,WSW,5.8,-,N/A,,Overcast,240,2013-07-02 10:53:00
4:53 AM,57.0,55.9,96,30.06,6.0,WSW,8.1,-,N/A,,Overcast,240,2013-07-02 11:53:00
5:35 AM,57.2,55.4,94,30.07,2.0,WSW,9.2,-,N/A,,Overcast,250,2013-07-02 12:35:00
5:43 AM,57.2,55.4,94,30.07,1.2,WSW,8.1,-,N/A,,Overcast,250,2013-07-02 12:43:00
5:53 AM,57.0,55.9,96,30.06,1.8,WSW,9.2,-,N/A,,Overcast,240,2013-07-02 12:53:00
6:01 AM,57.2,55.4,94,30.07,2.5,WSW,10.4,-,N/A,,Overcast,240,2013-07-02 13:01:00
6:08 AM,57.2,55.4,94,30.07,3.0,WSW,6.9,-,N/A,,Overcast,240,2013-07-02 13:08:00
7:53 AM,57.9,55.9,93,30.09,10.0,SW,9.2,-,N/A,,Overcast,220,2013-07-02 14:53:00
8:53 AM,57.9,55.9,93,30.10,10.0,SW,5.8,-,N/A,,Overcast,230,2013-07-02 15:53:00
9:14 AM,60.8,55.4,82,30.10,10.0,Calm,Calm,-,N/A,,Overcast,0,2013-07-02 16:14:00
9:53 AM,60.1,57.0,90,30.10,10.0,West,5.8,-,N/A,,Overcast,260,2013-07-02 16:53:00
10:53 AM,61.0,57.0,87,30.11,10.0,SW,6.9,-,N/A,,Overcast,230,2013-07-02 17:53:00
11:36 AM,62.6,57.2,82,30.10,10.0,WSW,5.8,-,N/A,,Overcast,250,2013-07-02 18:36:00
11:53 AM,63.0,57.9,84,30.11,10.0,West,6.9,-,N/A,,Overcast,260,2013-07-02 18:53:00
12:53 PM,66.9,59.0,76,30.10,10.0,South,3.5,-,N/A,,Mostly Cloudy,180,2013-07-02 19:53:00
1:13 PM,69.8,60.8,73,30.10,10.0,Variable,3.5,-,N/A,,Partly Cloudy,0,2013-07-02 20:13:00
1:53 PM,72.0,60.1,66,30.10,10.0,Variable,3.5,-,N/A,,Clear,0,2013-07-02 20:53:00
2:53 PM,77.0,62.1,60,30.08,10.0,SSW,4.6,-,N/A,,Clear,210,2013-07-02 21:53:00
3:53 PM,79.0,62.1,56,30.08,10.0,East,6.9,-,N/A,,Partly Cloudy,80,2013-07-02 22:53:00
4:53 PM,79.0,62.1,56,30.07,10.0,ESE,8.1,-,N/A,,Partly Cloudy,120,2013-07-02 23:53:00
5:53 PM,79.0,62.1,56,30.06,10.0,East,8.1,-,N/A,,Clear,100,2013-07-03 00:53:00
6:53 PM,79.0,62.1,56,30.04,10.0,SSW,4.6,-,N/A,,Partly Cloudy,210,2013-07-03 01:53:00
7:53 PM,75.9,55.9,50,30.04,10.0,WSW,8.1,-,N/A,,Clear,240,2013-07-03 02:53:00
8:53 PM,71.1,55.0,57,30.03,10.0,WSW,10.4,-,N/A,,Clear,250,2013-07-03 03:53:00
9:53 PM,66.0,55.0,68,30.05,10.0,WSW,13.8,-,N/A,,Clear,240,2013-07-03 04:53:00
10:53 PM,63.0,54.0,72,30.06,10.0,SW,11.5,-,N/A,,Partly Cloudy,230,2013-07-03 05:53:00
11:53 PM,60.1,53.1,78,30.08,10.0,West,5.8,-,N/A,,Clear,260,2013-07-03 06:53:00